User: anonymous   Login
Location: Unspecified
(0.0000°N, 0.0000°E)
Time: 07:57:37
(UTC+00:00)
Language:

AGILE - Orbit

View from above orbital plane
View from above orbital plane
View from above satellite
View from above satellite

Ground track
Ground track

The orbit data is extracted from the following two-line orbital elements,

1 31135U 07013A   14295.37403240  .00011699  00000-0  46038-3 0   764
2 31135 002.4682 058.6461 0015777 112.1323 248.0406 15.21227867415383
Epoch (UTC): 22 October 2014 08:58:36
Eccentricity: 0.0015777
inclination: 2.4682°
perigee height: 491 km
apogee height: 513 km
right ascension of ascending node: 58.6461°
argument of perigee: 112.1323°
revolutions per day: 15.21227867
mean anomaly at epoch: 248.0406°
orbit number at epoch: 41538

The dashed part of the orbit path shows where the satellite is in the earth's shadow,  

DLR